Wayne, NE

7:18 PM CDT on September 16, 2019 (GMT -0500)
Wayne Municipal

Weather History for KLCG - August, 2019

Change the Weather History Date:

Sunday, August 18, 2019

  Actual Average (WUND) Record (WUND)
Temperature  
Mean Temperature 66 °F -  
Max Temperature 74 °F - - (-1)
Min Temperature 59 °F - - (-1)
Cooling Degree Days 2    
Growing Degree Days 16 (Base 50)    
Moisture  
Dew Point 62 °F    
Average Humidity 84    
Maximum Humidity 96    
Minimum Humidity 64    
Precipitation  
Precipitation 0.12 in - - ()
Sea Level Pressure  
Sea Level Pressure 29.86 in    
Wind  
Wind Speed 7 mph (North)    
Max Wind Speed 18 mph    
Max Gust Speed 29 mph    
Visibility 10 miles    
Events Thunderstorm    
Averages and records for this station are not official NWS values.
T = Trace of Precipitation, MM = Missing Value Source: NWS Daily Summary

Daily Weather History Graph

Daily Weather History Graph

Search for Another Location

Airport or City:

Astronomy

Aug. 18, 2019 Rise Set
Actual Time 6:38 AM CDT 8:24 PM CDT
Civil Twilight 6:08 AM CDT 8:54 PM CDT
Nautical Twilight 5:31 AM CDT 9:30 PM CDT
Astronomical Twilight 4:52 AM CDT 10:09 PM CDT
Moon 10:16 PM CDT (8/18) 9:26 AM CDT (8/18)
Length of Visible Light 14h 46m
Length of Day
13h 46m
Waning Gibbous, 91% of the Moon is Illuminated
Aug 18
Waning Gibbous
Aug 23
Last Quarter
Aug 30
New
Sep 5
First Quarter
Sep 13
Full

Hourly Weather History & Observations

Time (CDT) Temp. Dew Point Humidity Pressure Visibility Wind Dir Wind Speed Gust Speed Precip Events Conditions
12:15 AM 74.1 °F 70.7 °F 89% 29.65 in 10.0 mi SSW 8.1 mph - N/A Thunderstorm Thunderstorm
12:35 AM 73.6 °F 70.7 °F 91% 29.65 in 10.0 mi SSW 5.8 mph - N/A Thunderstorm Clear
12:55 AM 74.7 °F 70.9 °F 88% 29.69 in 10.0 mi West 8.1 mph 18.4 mph N/A Thunderstorm Mostly Cloudy
1:15 AM 68.0 °F 61.2 °F 79% 29.72 in 10.0 mi NE 18.4 mph 28.8 mph N/A Thunderstorm Thunderstorm
1:35 AM 66.2 °F 61.3 °F 84% 29.71 in 10.0 mi NE 5.8 mph 9.2 mph N/A Thunderstorm Overcast
1:55 AM 66.2 °F 62.2 °F 87% 29.72 in 2.0 mi NNE 9.2 mph - 0.11 in   Overcast
2:15 AM 64.6 °F 61.7 °F 90% 29.71 in 10.0 mi NNW 5.8 mph - 0.01 in Thunderstorm Thunderstorm
2:35 AM 64.8 °F 62.4 °F 92% 29.72 in 10.0 mi Calm Calm - 0.01 in   Mostly Cloudy
2:55 AM 64.2 °F 62.1 °F 93% 29.73 in 10.0 mi NW 8.1 mph - 0.01 in   Mostly Cloudy
3:15 AM 63.5 °F 61.2 °F 92% 29.71 in 10.0 mi NNE 3.5 mph - N/A   Scattered Clouds
3:35 AM 62.8 °F 60.8 °F 93% 29.71 in 10.0 mi North 5.8 mph - N/A   Clear
3:55 AM 62.2 °F 60.3 °F 93% 29.72 in 10.0 mi NNW 5.8 mph - N/A   Clear
4:15 AM 61.7 °F 59.9 °F 94% 29.74 in 10.0 mi North 4.6 mph - N/A   Clear
4:35 AM 61.7 °F 59.5 °F 93% 29.74 in 10.0 mi North 5.8 mph - N/A   Clear
4:55 AM 61.0 °F 59.4 °F 94% 29.76 in 10.0 mi NNE 3.5 mph - N/A   Clear
5:15 AM 60.8 °F 59.2 °F 94% 29.78 in 10.0 mi North 3.5 mph - N/A   Clear
5:35 AM 60.8 °F 59.2 °F 94% 29.78 in 10.0 mi NNW 9.2 mph - N/A   Clear
5:55 AM 61.0 °F 59.0 °F 93% 29.79 in 10.0 mi North 10.4 mph - N/A   Clear
6:15 AM 60.8 °F 59.0 °F 94% 29.80 in 10.0 mi NNW 8.1 mph - N/A   Clear
6:35 AM 60.8 °F 58.6 °F 93% 29.81 in 10.0 mi NNW 8.1 mph - N/A   Clear
6:55 AM 60.4 °F 58.6 °F 94% 29.82 in 10.0 mi NNW 4.6 mph - N/A   Clear
7:15 AM 60.6 °F 58.8 °F 94% 29.82 in 10.0 mi NNW 4.6 mph - N/A   Clear
7:35 AM 61.3 °F 59.4 °F 93% 29.84 in 10.0 mi North 5.8 mph - N/A   Clear
7:55 AM 62.4 °F 59.9 °F 91% 29.86 in 10.0 mi North 4.6 mph - N/A   Clear
8:15 AM 62.8 °F 60.8 °F 93% 29.87 in 10.0 mi North 10.4 mph - N/A   Mostly Cloudy
8:35 AM 62.8 °F 60.8 °F 93% 29.89 in 10.0 mi NNW 11.5 mph 17.3 mph N/A   Overcast
8:55 AM 63.5 °F 61.0 °F 91% 29.90 in 10.0 mi North 11.5 mph - N/A   Overcast
9:15 AM 64.4 °F 61.5 °F 90% 29.90 in 10.0 mi North 13.8 mph - N/A   Overcast
9:35 AM 65.5 °F 62.1 °F 89% 29.90 in 10.0 mi North 12.7 mph 16.1 mph N/A   Overcast
9:55 AM 65.8 °F 61.7 °F 86% 29.91 in 10.0 mi North 15.0 mph 19.6 mph N/A   Overcast
10:15 AM 66.9 °F 61.3 °F 82% 29.91 in 10.0 mi North 15.0 mph - N/A   Overcast
10:35 AM 66.2 °F 61.7 °F 85% 29.92 in 10.0 mi North 13.8 mph 18.4 mph N/A   Overcast
10:55 AM 67.1 °F 61.5 °F 82% 29.93 in 10.0 mi North 12.7 mph - N/A   Overcast
11:15 AM 68.4 °F 62.2 °F 81% 29.93 in 10.0 mi North 10.4 mph 16.1 mph N/A   Overcast
11:35 AM 68.2 °F 61.2 °F 78% 29.93 in 10.0 mi North 5.8 mph - N/A   Overcast
11:55 AM 70.0 °F 62.4 °F 77% 29.93 in 10.0 mi NNE 8.1 mph - N/A   Overcast
12:15 PM 70.0 °F 62.1 °F 76% 29.92 in 10.0 mi NNE 5.8 mph - N/A   Overcast
12:35 PM 71.2 °F 62.6 °F 74% 29.92 in 10.0 mi NNW 8.1 mph - N/A   Overcast
12:55 PM 71.6 °F 62.6 °F 73% 29.91 in 10.0 mi North 10.4 mph - N/A   Mostly Cloudy
1:15 PM 71.6 °F 62.8 °F 74% 29.91 in 10.0 mi NNW 9.2 mph - N/A   Mostly Cloudy
1:35 PM 72.0 °F 63.1 °F 74% 29.91 in 10.0 mi NNW 10.4 mph 16.1 mph N/A   Overcast
1:55 PM 72.3 °F 62.2 °F 70% 29.91 in 10.0 mi NNW 11.5 mph - N/A   Overcast
2:15 PM 72.7 °F 63.0 °F 71% 29.92 in 10.0 mi North 11.5 mph - N/A   Overcast
2:35 PM 73.6 °F 63.0 °F 69% 29.91 in 10.0 mi North 13.8 mph - N/A   Overcast
2:55 PM 72.9 °F 62.6 °F 70% 29.91 in 10.0 mi North 10.4 mph - N/A   Overcast
3:15 PM 72.3 °F 62.6 °F 71% 29.91 in 10.0 mi North 10.4 mph - N/A   Overcast
3:35 PM 72.3 °F 62.1 °F 70% 29.91 in 10.0 mi NW 11.5 mph - N/A   Overcast
3:55 PM 72.7 °F 62.2 °F 70% 29.91 in 10.0 mi North 8.1 mph - N/A   Overcast
4:15 PM 72.5 °F 62.1 °F 70% 29.91 in 10.0 mi North 6.9 mph - N/A   Overcast
4:35 PM 72.9 °F 61.7 °F 68% 29.91 in 10.0 mi NW 6.9 mph - N/A   Overcast
4:55 PM 72.5 °F 61.9 °F 69% 29.91 in 10.0 mi North 5.8 mph - N/A   Overcast
5:15 PM 72.3 °F 61.7 °F 69% 29.91 in 10.0 mi North 3.5 mph - N/A   Mostly Cloudy
5:35 PM 74.3 °F 61.5 °F 64% 29.91 in 10.0 mi Calm Calm - N/A   Scattered Clouds
5:55 PM 74.3 °F 61.3 °F 64% 29.91 in 10.0 mi NNE 4.6 mph - N/A   Scattered Clouds
6:15 PM 73.2 °F 61.9 °F 68% 29.91 in 10.0 mi NE 5.8 mph - N/A   Mostly Cloudy
6:35 PM - - N/A% - - North - - N/A   Scattered Clouds
6:50 PM - - N/A% - - North - - N/A   Unknown
7:55 PM 70.0 °F 64.2 °F 82% 29.93 in 10.0 mi Calm Calm - N/A   Unknown
8:15 PM 68.5 °F 63.9 °F 85% 29.93 in 10.0 mi Calm Calm - N/A   Scattered Clouds
8:35 PM 66.7 °F 63.1 °F 88% 29.93 in 10.0 mi Calm Calm - N/A   Clear
8:55 PM 64.9 °F 61.9 °F 90% 29.93 in 10.0 mi Calm Calm - N/A   Clear
9:15 PM 63.1 °F 60.8 °F 92% 29.94 in 10.0 mi Calm Calm - N/A   Clear
9:35 PM 63.0 °F 60.4 °F 91% 29.94 in 10.0 mi Calm Calm - N/A   Clear
9:55 PM 63.3 °F 60.3 °F 90% 29.95 in 10.0 mi Calm Calm - N/A   Clear
10:15 PM 61.7 °F 59.7 °F 93% 29.96 in 10.0 mi Calm Calm - N/A   Clear
10:35 PM 61.3 °F 59.4 °F 93% 29.96 in 10.0 mi Calm Calm - N/A   Clear
10:55 PM 60.3 °F 59.2 °F 96% 29.97 in 10.0 mi Calm Calm - N/A   Clear
11:15 PM 59.4 °F 58.1 °F 96% 29.98 in 10.0 mi Calm Calm - N/A   Clear
11:35 PM 59.7 °F 58.5 °F 96% 29.98 in 10.0 mi Calm Calm - N/A   Clear
11:55 PM 59.0 °F 57.6 °F 95% 29.98 in 10.0 mi Calm Calm - N/A   Clear